Weather Roundup
Issued by NWS Springfield, MO

Home | Current Version | Previous Version | Text Only | Print | Product List | Glossary On
Versions: 1 2 3 4 5 6 7 8 9 10 11 12 13 14 15 16 17 18 19 20 21 22 23 24 25 26 27 28 29 30 31 32 33 34 35 36 37 38 39 40 41 42 43 44 45 46 47 48 49 50
000
NZUS99 KSGF 022207
HRRSGF

HOURLY WEATHER
NATIONAL WEATHER SERVICE SPRINGFIELD MO
500 PM CDT SUN AUG 02 2015

......SGF CWA......

CITY           SKY/WX    TMP DP  RH WIND       PRES   REMARKS
SPRINGFIELD    MOSUNNY   91  63  39 SW12      29.93F HX  92
JOPLIN         SUNNY     94  57  28 SW16G25   29.92F HX  92
WEST PLAINS    MOSUNNY   90  65  43 SW7       29.96S HX  92
ROLLA          SUNNY     90  65  43 W10       29.90F HX  92
OSAGE BEACH    SUNNY     91  64  40 W8        29.91S HX  93
BRANSON        PTSUNNY   91  63  38 W3        29.96F HX  92

......SURROUNDING SGF CWA......

CITY           SKY/WX    TMP DP  RH WIND       PRES   REMARKS
CHANUTE        SUNNY     93  62  35 SW15G25   29.90F HX  93
PARSONS        SUNNY     93  65  39 SW8G16    29.91F HX  95
COFFEYVILLE    MOSUNNY   93  65  39 SW13      29.89F HX  95
EMPORIA        SUNNY     90  68  48 SW9       29.89F HX  94
GROVE OK       SUNNY     93  61  33 SW10      29.94S HX  93
ROGERS AR      MOSUNNY   90  62  39 W8        29.97F HX  90
SILOAM SPRINGS MOSUNNY   91  64  40 SW9       29.94F HX  93
HARRISON AR    SUNNY     87  67  51 W5        29.96S HX  90
NEAR YELLVILLE MOSUNNY   93  61  33 NW5       29.91S HX  93

......KANSAS AND MISSOURI......

CITY           SKY/WX    TMP DP  RH WIND       PRES   REMARKS
KANSAS CTY INT SUNNY     89  71  55 SW15      29.85F HX  95
DOWNTOWN KC    SUNNY     93  68  43 SW14      29.84F HX  97
COLUMBIA       SUNNY     89  69  51 SW12      29.89F HX  93
SEDALIA        MOSUNNY   91  66  43 W10G21    29.89F HX  93
ST JOSEPH      SUNNY     89  74  60 SW12      29.84S HX  98
ST LOUIS       PTSUNNY   94  67  41 SW15      29.87F HX  97
SPIRIT OF STL  MOSUNNY   92  70  48 W9        29.85F HX  97
KIRKSVILLE     SUNNY     89  71  55 SW15G21   29.84F HX  95
WICHITA        MOSUNNY   90  69  50 S12       29.89F HX  94
TOPEKA         SUNNY     92  69  47 SW8       29.85F HX  97
OLATHE         SUNNY     92  65  40 W13       29.87F HX  94

......TENNESSEE......

CITY           SKY/WX    TMP DP  RH WIND       PRES   REMARKS
MEMPHIS        PTSUNNY   87  70  56 S17       29.92R HX  92
NASHVILLE      MOSUNNY   89  53  29 SE6       29.94F

......ARKANSAS.......

CITY           SKY/WX    TMP DP  RH WIND       PRES   REMARKS
FAYETTEVILLE   MOSUNNY   88  64  44 W9        29.96F
FT SMITH       MOSUNNY   94  61  33 NE7       29.89F HX  94
LITTLE ROCK    PTSUNNY   95  63  34 SE8       29.90S HX  96

......OKLAHOMA.......

CITY           SKY/WX    TMP DP  RH WIND       PRES   REMARKS
TULSA          PTSUNNY   91  64  40 SW9G17    29.91S HX  92
PONCA CITY     SUNNY     90  66  45 VRB6      29.90F HX  92
MCALESTER      SUNNY     94  56  27 VRB6      29.92F HX  92
OKLAHOMA CITY  PTSUNNY   88  65  46 S12       29.92F HX  90

......IOWA............

CITY           SKY/WX    TMP DP  RH WIND       PRES   REMARKS
DES MOINES     MOSUNNY   93  73  52 W16       29.75S THUNDER HX 102
QUAD CITIES    MOSUNNY   91  72  53 SW14G28   29.73F HX  98

......ILLINOIS........

CITY           SKY/WX    TMP DP  RH WIND       PRES   REMARKS
QUINCY         SUNNY     90  73  57 SW14      29.83F HX  98
CHICAGO        MOSUNNY   89  69  51 SW23G35   29.68F HX  93



USA.gov is the U.S. government's official web portal to all federal, state and local government web resources and services.